Meteo Giornale » Osservazioni meteo Finlandia » Kuusamo
ore: 01:20 - Osservazioni Meteo Kuusamo
Lat. 65° 58' N Lon. 29° 11' E Alt. 262 metri s.l.m.
14 °C
Pioggia
Temp. 24 Ore
13 °C
17 °C
Est
9.3 Km/h
Dew point 14 °C
Umidità 100 %
Visibilità 6 Km
Il sole sorge alle ore 05:38
Il sole tramonta alle ore 20:27
| Data e Ora | Cielo e Fenomeni | T °C | DP °C | Um. % | Pres. hPa | Vis. km | Vento km/h | |
|---|---|---|---|---|---|---|---|---|
| Oggi h: 01:20 | Pioggia | 14 | 14 | 100 | 1005 | 6 | E 9.3 | |
| Oggi h: 00:50 | Pioggia | 14 | 13 | 93 | 1005 | 6 | E/NE 7.4 | |
| Oggi h: 00:20 | Pioggia | 14 | 13 | 93 | 1005 | 5 | N 3.7 | |
| Ieri h: 23:50 | Pioggia | 14 | 14 | 100 | 1006 | 10 | SE 9.3 | |
| Ieri h: 23:20 | Pioggia | 14 | 14 | 100 | 1006 | 9 | SE 7.4 | |
| Ieri h: 22:50 | Pioggia | 15 | 14 | 93 | 1006 | 10 | S/SE 13 | |
| Ieri h: 22:20 | Coperto | 15 | 14 | 93 | 1006 | 10 | SE 13 | |
| Ieri h: 21:50 | Molto Nuvoloso | 15 | 14 | 93 | 1006 | 10 | E/SE 7.4 | |
| Ieri h: 21:20 | Molto Nuvoloso | 15 | 14 | 93 | 1006 | 10 | E/SE 9.3 | |
| Ieri h: 20:50 | Molto Nuvoloso | 15 | 14 | 93 | 1006 | 10 | E/SE 7.4 | |
| Ieri h: 20:20 | Poco Nuvoloso | 15 | 14 | 93 | 1006 | 10 | SE 11.1 | |
| Ieri h: 19:50 | Poco Nuvoloso | 16 | 14 | 87 | 1006 | 10 | SE 11.1 | |
| Ieri h: 19:20 | Nuvoloso | 16 | 14 | 87 | 1006 | 10 | SE 13 | |
| Ieri h: 18:50 | Sereno | 16 | 14 | 87 | 1006 | 10 | S/SE 11.1 | |
| Ieri h: 18:20 | Sereno | 17 | 14 | 82 | 1006 | 10 | S/SE 13 | |
| Ieri h: 17:50 | Sereno | 17 | 13 | 77 | 1006 | 10 | S/SE 13 | |
| Ieri h: 17:20 | Sereno | 17 | 13 | 77 | 1006 | 10 | S/SE 14.8 | |
| Ieri h: 16:50 | Sereno | 17 | 13 | 77 | 1006 | 10 | S/SE 13 | |
| Ieri h: 16:20 | Sereno | 17 | 13 | 77 | 1006 | 10 | S/SE 13 | |
| Ieri h: 15:50 | Sereno | 17 | 13 | 77 | 1006 | 10 | S/SE 13 | |
| Ieri h: 15:20 | Sereno | 16 | 13 | 82 | 1006 | 10 | S/SE 13 | |
| Ieri h: 14:50 | Poco Nuvoloso | 16 | 13 | 82 | 1006 | 10 | S/SE 14.8 | |
| Ieri h: 14:20 | Sereno | 16 | 13 | 82 | 1006 | 10 | S/SE 13 | |
| Ieri h: 13:50 | Nuvoloso | 16 | 13 | 82 | 1006 | 10 | S/SE 16.7 | |
| Ieri h: 13:20 | Molto Nuvoloso | 16 | 14 | 87 | 1006 | 10 | S/SE 14.8 | |
| Ieri h: 12:50 | Molto Nuvoloso | 15 | 14 | 93 | 1006 | 10 | S/SE 13 | |
| Ieri h: 12:20 | Molto Nuvoloso | 15 | 14 | 93 | 1006 | 10 | S/SE 11.1 | |
| Ieri h: 11:50 | Molto Nuvoloso | 14 | 13 | 93 | 1006 | 10 | S/SE 11.1 | |
| Ieri h: 11:20 | Coperto | 14 | 13 | 93 | 1006 | 10 | S/SE 13 | |
| Ieri h: 10:50 | Coperto | 14 | 14 | 100 | 1006 | 10 | S/SE 13 | |
| Ieri h: 10:20 | Coperto | 14 | 14 | 100 | 1006 | 10 | S 13 | |
| Ieri h: 09:50 | Coperto | 14 | 13 | 93 | 1006 | 10 | S 14.8 | |
| Ieri h: 09:20 | Pioggia | 13 | 13 | 100 | 1006 | 6 | S 14.8 | |
| Ieri h: 08:50 | Pioggia | 13 | 13 | 100 | 1006 | 5 | S/SE 13 | |
| Ieri h: 08:20 | Pioggia | 13 | 13 | 100 | 1006 | 10 | S/SE 16.7 | |
| Ieri h: 07:50 | Pioggia | 13 | 12 | 93 | 1006 | 10 | S/SE 16.7 | |
| Ieri h: 07:20 | Pioggia | 14 | 12 | 87 | 1006 | 10 | S/SE 18.5 | |
| Ieri h: 06:50 | Coperto | 13 | 12 | 93 | 1006 | 10 | S/SE 14.8 | |
| Ieri h: 06:20 | Molto Nuvoloso | 13 | 12 | 93 | 1006 | 10 | S/SE 16.7 | |
| Ieri h: 05:50 | Coperto | 14 | 12 | 87 | 1006 | 10 | S/SE 16.7 | |
| Ieri h: 05:20 | Coperto | 14 | 12 | 87 | 1006 | 10 | S/SE 16.7 | |
| Ieri h: 04:50 | Coperto | 14 | 12 | 87 | 1006 | 10 | S/SE 18.5 | |
| Ieri h: 04:20 | Coperto | 14 | 13 | 93 | 1006 | 10 | S/SE 18.5 | |
| Ieri h: 03:50 | Coperto | 14 | 13 | 93 | 1007 | 10 | S/SE 16.7 | |
| Ieri h: 03:20 | Molto Nuvoloso | 14 | 13 | 93 | 1007 | 10 | S/SE 16.7 | |
| Ieri h: 02:50 | Coperto | 14 | 13 | 93 | 1007 | 10 | S/SE 16.7 | |
| Ieri h: 02:20 | Coperto | 14 | 13 | 93 | 1007 | 10 | S/SE 16.7 | |
| Ieri h: 01:50 | Coperto | 14 | 13 | 93 | 1007 | 10 | S/SE 16.7 | |



